Content
SEND FEEDBACK

Daily
Averages
Monthly
Summary
United States of America

MYERSTOWN, PENNSYLVANIA


Home > North America > United States > Pennsylvania
Elevation: 146 meters     Latitude: 40 22N     Longitude: 076 18W

WEATHER
 
SELECT A DAY
Number of Records: 169,697;   Date Range: 1/3/95 - 12/24/14
 
SHARE

PRINT THIS DATA

[ ← Previous Day ]
WEATHER ALMANAC - 23 JANUARY, 2013
[ Next Day → ]
[ °F ]   °C
Weather ElementAverageHighLow
Temperature-9.9 °C-7 °C (3:29 pm)-12.8 °C (9:55 pm)
Dewpoint-19.2 °C-15.3 °C (11:55 pm)-20.4 °C (1:55 am)
Humidity48.8 %74 % (9:55 pm)36 % (3:29 pm)
Barometer1024 hPa1026.4 hPa (9:55 am)1021.7 hPa (11:55 pm)
Wind Speed13.4 km/h29.6 km/h (12:23 pm)
Wind Gust42.6 km/h (12:23 pm)
Weather ElementAverage
Visibility16.1 km
Wind DirectionSSW (217.9 °)

Weather ElementTotal
Precipitation---
Heating Degree Days28.2 (Base 18.3)
Averaged from 29 records on 23 January, 2013
WEATHER CONDITIONS BREAKOUT
WIND DIRECTION BREAKOUT
WEATHER BY HOUR - 23 JANUARY, 2013
[ °F ]   °C
Local TimeTemperatureDewpointHumidityBarometerVisibilityWind DirectionWind SpeedGust SpeedPrecipitationEventsConditions
1:55 AM-11.9 °C-20.4 °C50 %1024.7 hPa16.1 kmWSW (250°)14.8 km/hClear
2:55 AM-11.8 °C-20.4 °C50 %1025.1 hPa16.1 kmWest (260°)11.1 km/hClear
3:55 AM-12.1 °C-20.1 °C52 %1025.1 hPa16.1 kmWSW (240°)9.3 km/hClear
4:55 AM-12.3 °C-20.2 °C53 %1025.1 hPa16.1 kmVariable7.4 km/hClear
5:55 AM-12.1 °C-20 °C53 %1025.1 hPa16.1 kmWSW (240°)13 km/hClear
6:55 AM-12.6 °C-19.4 °C58 %1025.4 hPa16.1 kmSW (220°)14.8 km/hClear
7:55 AM-12.2 °C-19.4 °C56 %1025.7 hPa16.1 kmWSW (250°)14.8 km/hClear
8:55 AM-10.8 °C-19.5 °C50 %1026.1 hPa16.1 kmWest (260°)16.7 km/h33.3 km/hPartly Cloudy
9:55 AM-10.4 °C-19.5 °C48 %1026.4 hPa16.1 kmWNW (290°)14.8 km/h33.3 km/hClear
10:55 AM-8.8 °C-18.9 °C45 %1026.1 hPa16.1 kmWNW (290°)18.5 km/hScattered Clouds
11:55 AM-8.4 °C-18.9 °C43 %1025.1 hPa16.1 kmWest (270°)20.4 km/h27.8 km/hMostly Cloudy
12:23 PM-8 °C-20 °C38 %1024.4 hPa16.1 kmWSW (250°)29.6 km/h42.6 km/hSnowLight Snow
12:24 PM-9 °C-20 °C41 %1023 hPa16.1 kmWest (280°)18.5 km/h42.6 km/hPartly Cloudy
12:55 PM-8.3 °C-20.4 °C38 %1023.7 hPa16.1 kmWest (280°)20.4 km/h31.5 km/hPartly Cloudy
1:55 PM-7.9 °C-19.2 °C41 %1023.4 hPa16.1 kmWSW (240°)25.9 km/hPartly Cloudy
1:58 PM-8 °C-19 °C42 %1023.4 hPa16.1 kmSW (230°)20.4 km/h31.5 km/hSnowLight Snow
2:08 PM-8 °C-20 °C38 %1023.4 hPa16.1 kmWSW (250°)24.1 km/h31.5 km/hScattered Clouds
2:55 PM-8.1 °C-19.4 °C41 %1023.4 hPa16.1 kmWest (280°)13 km/h0 mmPartly Cloudy
3:29 PM-7 °C-20 °C36 %1023 hPa16.1 kmWNW (300°)13 km/hLight Drizzle
3:49 PM-7 °C-20 °C36 %1023 hPa16.1 kmWSW (250°)18.5 km/hScattered Clouds
3:55 PM-7.4 °C-20.2 °C36 %1023 hPa16.1 kmWest (280°)9.3 km/hScattered Clouds
4:55 PM-8.2 °C-19.3 °C41 %1023 hPa16.1 kmWNW (300°)13 km/hScattered Clouds
5:55 PM-8.8 °C-19.8 °C42 %1023.4 hPa16.1 kmWSW (240°)11.1 km/hScattered Clouds
6:55 PM-9.6 °C-19.6 °C45 %1023.4 hPa16.1 kmWest (280°)9.3 km/hPartly Cloudy
7:55 PM-10.9 °C-18.5 °C54 %1022.7 hPa16.1 kmWNW (290°)5.6 km/hClear
8:55 PM-12.4 °C-17.1 °C69 %1023 hPa16.1 kmCalmClear
9:55 PM-12.8 °C-16.6 °C74 %1023 hPa16.1 kmCalmOvercast
10:55 PM-11.7 °C-15.7 °C73 %1022.7 hPa16.1 kmCalmOvercast
11:55 PM-11.2 °C-15.3 °C72 %1021.7 hPa16.1 kmCalmPartly Cloudy
Hourly data recorded from KMUI, located 0 kilometers away from Myerstown, Pennsylvania







STORIES FROM OUR PARTNERS